Inquirer Daily News

Weather

Get conditions and forecasts for any City, State, ZIP code or Country:  
Northeast Philadelphia, PA
on Thursday, January 17, 2013

Thursday
Previous Day Next Day
Daily Summary
 ActualAverage (KTTN)Record (KTTN)
Temperature
Mean Temperature °F 31°F  
Max Temperature 42°F 39°F 67°F (1870)
Min Temperature 37°F 23°F -8°F (1982)
Degree Days
Heating Degree Days 26 34  
Month to date heating degree days 577  
Since 1 July heating degree days 2472  
Cooling Degree Days 0 0  
Month to date cooling degree days 0  
Year to date cooling degree days 0  
Moisture
Dew Point 29°F   
Average Humidity 68    
Maximum Humidity 93    
Minimum Humidity 55    
Precipitation
Precipitation 0.00 in 0.09 in 1.30 in (1994)
Month to date precipitation 1.80  
Year to date precipitation 1.80  
Wind
Wind Speed 4 mph   
Max Wind Speed 14 mph   
Max Gust Speed mph   
Visibility 10 miles   
Events     

Key: T is trace of precipitation, MM is missing value
Source: NWS Daily Summary
Time(EST)TemperatureDew PointHumidity Pressure Visibility Wind DirectionWind SpeedGust SpeedPrecipitationEvents Conditions
12:54 AM 37.9°F 35.1°F 89% 29.98 in 7.0 miles Calm Calm - N/A   Clear
1:54 AM 37.9°F 36.0°F 93% 29.99 in 7.0 miles Calm Calm - N/A   Scattered Clouds
2:54 AM 39.0°F 36.0°F 89% 29.99 in 8.0 miles Calm Calm - N/A   Clear
3:54 AM 37.4°F 35.6°F 93% 29.98 in 7.0 miles Calm Calm - N/A   Clear
4:54 AM 37.0°F 32.0°F 82% 29.98 in 10.0 miles Calm Calm - N/A   Clear
5:54 AM 37.9°F 30.9°F 76% 30.02 in 10.0 miles West 6.9 mph - N/A   Clear
6:54 AM 39.0°F 28.9°F 67% 30.04 in 10.0 miles NW 8.1 mph - N/A   Scattered Clouds
7:54 AM 39.0°F 27.0°F 62% 30.08 in 10.0 miles WNW 8.1 mph - N/A   Clear
8:54 AM 39.0°F 28.0°F 65% 30.12 in 10.0 miles WNW 6.9 mph - N/A   Clear
9:54 AM 39.0°F 28.0°F 65% 30.10 in 10.0 miles NNW 5.8 mph - N/A   Clear
10:54 AM 41.0°F 28.0°F 60% 30.11 in 10.0 miles NNW 10.4 mph - N/A   Partly Cloudy
11:54 AM 42.1°F 28.0°F 58% 30.11 in 10.0 miles NNW 11.5 mph - N/A   Partly Cloudy
12:54 PM 42.1°F 28.0°F 58% 30.09 in 10.0 miles NNW 13.8 mph - N/A   Scattered Clouds
1:54 PM 42.1°F 27.0°F 55% 30.09 in 10.0 miles NNW 12.7 mph - N/A   Clear
2:54 PM 41.0°F 27.0°F 57% 30.07 in 10.0 miles North 9.2 mph - N/A   Scattered Clouds
3:54 PM 41.0°F 28.0°F 60% 30.08 in 10.0 miles NNW 4.6 mph - N/A   Scattered Clouds
4:54 PM 39.9°F 26.1°F 58% 30.11 in 10.0 miles North 4.6 mph - N/A   Overcast
5:54 PM 39.9°F 26.1°F 58% 30.11 in 10.0 miles NW 3.5 mph - N/A   Overcast
6:54 PM 39.0°F 27.0°F 62% 30.11 in 10.0 miles NNW 4.6 mph - N/A   Overcast
7:54 PM 39.0°F 26.1°F 60% 30.11 in 10.0 miles NW 3.5 mph - N/A   Overcast
8:54 PM 39.0°F 28.0°F 65% 30.07 in 10.0 miles NNW 4.6 mph - N/A   Overcast
9:54 PM 37.9°F 28.0°F 68% 30.07 in 10.0 miles NW 6.9 mph - N/A   Overcast
10:54 PM 37.9°F 28.0°F 68% 30.06 in 10.0 miles NNW 6.9 mph - N/A   Overcast
11:54 PM 37.0°F 28.0°F 70% 30.05 in 10.0 miles NW 5.8 mph - N/A   Mostly Cloudy
Astronomy
Sunrise:07:19 AM (EST) Moon Rise:10:24 AM (EST)1/17
Sunset:05:01 PM (EST) Moon Set:11:50 PM (EST)1/17
Moon Phase
Jan. 17 Jan. 18 Jan. 26 Feb. 03 Feb. 10

Copyright © 2014 The Weather Underground, Inc.